Regional Weather Roundup
Issued by NWS

Home | Current Version | Previous Version | Text Only | Print | Product List | Glossary Off
Versions: 1 2 3 4 5 6 7 8 9 10 11 12 13 14 15 16 17 18 19 20 21 22 23 24 25 26 27 28 29 30 31 32 33 34 35 36 37 38 39 40 41 42 43 44 45 46 47 48 49 50

000
ASUS45 KSLC 212010
RWRUT

UTAH REGIONAL WEATHER ROUNDUP
NATIONAL WEATHER SERVICE SALT LAKE CITY UT
100 PM MST SUN DEC 21 2014

UTZ001>011-023>025-212100-

NORTHERN UTAH

CITY           SKY/WX    TMP DP  RH WIND       PRES   REMARKS
BRIGHAM CITY   CLOUDY    44  39  82 S17       29.90S
HILL AFB       CLOUDY    41  40  99 S14G22    29.93S
LOGAN          CLOUDY    46  39  76 SW14      29.85F
OGDEN          CLOUDY    42  40  92 S12       29.92F
PROVO AIRPORT  CLOUDY    39  37  93 NE3       29.99F
SALT LAKE CITY RAIN      41  38  89 SE12      29.94F
VERNAL         CLOUDY    32  28  85 E3        29.87F
WENDOVER       CLOUDY    55  37  50 W21G29    29.95F
HEBER CITY     MIX PCPN  34  34 100 E6        29.93F WCI  29
WEST JORDAN    CLOUDY    39  39 100 SE16G23   29.95F WCI  30

$$

UTZ012>022-026-027-212100-

SOUTHERN/CENTRAL UTAH

CITY           SKY/WX    TMP DP  RH WIND       PRES   REMARKS
BLANDING       PTSUNNY   36  31  84 CALM      30.08F
BRYCE CANYON   MOSUNNY   47  31  53 N17G23    30.06F
CEDAR CITY     SUNNY     53  34  48 SW6       30.05F
DELTA          CLOUDY    46  34  62 SW9       30.01S
MILFORD        SUNNY     50  35  56 SW21      30.02F
MOAB/CYNLANDS  CLOUDY    40  33  76 NW9       29.98F WCI  34
PRICE          LGT SNOW  34  28  79 CALM      29.97F
ST GEORGE      CLOUDY    48  34  57 CALM      30.11F
KANAB          PTSUNNY   45  34  65 S10       30.11F

$$

REGIONAL REPORTS     COLORADO/ARIZONA

CITY           SKY/WX    TMP DP  RH WIND       PRES   REMARKS
CRAIG, CO      CLOUDY    37  29  72 SW24      29.76F WCI  26
GRAND JUNCTION CLOUDY    33  32  96 NW5       29.97F WCI  29
RIFLE          FLURRIES  33  29  85 SW7       29.91F WCI  27
MONTROSE       CLOUDY    33  30  88 W5        29.97F WCI  29
CORTEZ         MOSUNNY   41  30  65 NW12      30.02F
PAGE, AZ       MOSUNNY   45  30  55 CALM      30.05F
GRAND CANYON   MOSUNNY   45  32  60 NW8       30.13F
KINGMAN        PTSUNNY   52  36  54 NW6       30.12F
FLAGSTAFF      SUNNY     53  32  44 W12       30.10F

$$

REGIONAL REPORTS    NEVADA/IDAHO/WYOMING

CITY           SKY/WX    TMP DP  RH WIND       PRES   REMARKS
LAS VEGAS, NV  CLOUDY    53  38  56 S3        30.09F
ELY            CLOUDY    49  36  61 E6        30.11F
ELKO           CLOUDY    49  42  77 W12       30.05F
POCATELLO, ID  CLOUDY    47  44  90 W30G38    29.80S
BURLEY         LGT RAIN  50  42  74 W29G47    29.82F
EVANSTON, WY   FOG       34  33  96 SW16      29.84S VSB 3/4 WCI  24
ROCK SPRINGS   CLOUDY    38  31  76 W39G47    29.70F WCI  24
KEMMERER       CLOUDY    34  32  93 SW30      29.74F FOG     WCI  20

$$


USA.gov is the U.S. government's official web portal to all federal, state and local government web resources and services.